Theta_e
312 316 339 339 338 336 335 334 331 330 327 326 326 325 325 326 327 328 328 327 331 331 330 329 329 327 327 326 325 325 324 324 324 324 323 323 323 323 322 322 323 323 323
313 312 315 338 337 336 333 335 332 331 328 326 325 325 326 327 328 327 328 327 328 330 329 329 327 327 327 326 325 324 324 323 323 323 322 322 322 322 322 322 322 322 323
312 313 313 314 335 337 332 332 332 330 327 325 324 324 326 326 326 326 327 326 326 326 328 328 326 326 326 325 325 323 322 322 322 322 321 321 321 321 321 321 321 321 322
312 313 312 312 317 335 332 330 330 327 324 324 323 323 324 325 325 325 322 322 323 323 326 328 326 325 325 325 324 324 322 321 320 320 320 320 320 320 320 320 320 321 321
313 312 311 313 315 333 331 329 327 327 323 322 322 323 324 324 324 323 322 320 321 322 322 325 324 325 325 323 324 323 322 320 319 319 318 319 318 319 319 319 320 320 321
310 309 311 312 314 317 329 327 325 325 324 322 319 320 322 323 323 323 322 320 319 320 321 320 321 320 323 323 323 323 322 320 319 318 317 317 317 318 318 319 319 320 320
311 310 311 311 313 313 323 326 324 321 322 322 318 312 312 314 317 320 322 320 320 318 319 318 318 321 320 323 323 322 322 320 319 317 316 316 316 317 318 318 318 319 319
304 307 309 311 311 312 314 325 323 320 319 320 314 309 304 308 310 314 317 318 318 319 318 319 319 320 320 320 320 322 321 320 319 317 315 315 315 316 317 317 318 318 319
300 304 307 310 311 312 312 323 322 319 316 318 316 313 306 305 308 308 310 316 317 317 317 318 318 319 319 319 319 317 317 320 318 317 315 314 314 315 316 317 317 318 318
298 299 303 309 311 311 311 315 322 320 317 313 316 315 316 315 307 302 306 308 314 315 315 317 316 317 317 318 316 315 314 314 315 315 314 313 313 314 315 316 317 317 317
298 300 302 306 311 311 312 313 320 319 318 315 316 314 314 315 314 310 304 305 308 313 315 315 315 315 316 316 316 313 313 313 315 314 313 313 313 314 315 316 317 317 316
296 298 299 302 303 311 312 313 320 319 317 317 317 316 312 309 310 310 309 306 305 308 312 314 314 313 314 314 314 313 311 312 312 311 310 311 314 314 315 316 316 316 315
292 294 295 296 298 301 306 313 319 318 318 316 318 316 313 311 311 309 309 307 306 309 309 311 313 313 310 311 312 309 309 311 312 313 312 312 314 314 314 314 315 314 312
290 293 294 295 297 298 302 306 316 319 319 317 318 317 313 311 308 307 309 306 304 305 305 307 311 310 309 306 307 306 306 308 310 311 310 311 314 312 310 310 310 309 309
289 291 292 293 295 297 301 304 313 317 317 316 316 316 314 310 306 304 306 308 306 301 299 303 304 308 308 306 303 302 302 305 307 308 309 310 310 308 307 306 306 307 306
288 289 290 291 292 295 298 302 311 317 316 315 315 314 314 310 304 304 303 306 307 306 303 303 301 303 306 304 303 300 300 303 305 307 308 308 307 307 305 305 305 305 305
286 287 288 289 290 292 295 298 303 315 314 314 314 313 310 309 303 303 301 302 303 305 301 296 297 298 301 300 300 299 300 300 300 305 307 307 307 306 305 305 304 304 303
285 286 287 288 288 290 294 295 298 312 312 312 312 311 309 303 300 299 298 296 299 302 303 295 295 294 297 298 299 297 298 299 299 303 303 305 306 305 304 303 303 302 302
284 285 286 286 287 289 291 294 297 302 312 311 311 310 308 302 300 298 298 296 296 295 297 297 292 294 295 296 296 297 297 296 297 301 302 302 302 302 302 302 302 302 298
282 283 285 285 287 288 290 292 294 297 312 311 312 310 309 306 304 303 300 298 297 296 294 293 292 291 292 294 295 294 294 297 295 295 297 298 300 301 300 300 299 295 293
281 283 284 285 286 287 289 292 294 297 306 310 310 310 310 308 305 306 307 305 303 297 294 293 292 291 291 290 291 293 293 294 295 295 294 293 294 294 295 297 294 292 292
280 281 282 283 284 286 288 291 293 294 297 309 309 310 310 303 304 306 306 306 307 303 299 294 293 292 292 292 293 293 293 292 290 296 293 292 293 293 292 292 292 291 292
279 280 281 282 283 285 288 290 291 293 295 308 309 309 308 308 305 307 305 304 304 305 305 302 295 294 293 294 293 293 293 293 295 293 293 288 289 290 290 289 289 291 291
278 279 280 281 282 284 287 289 290 292 293 300 309 309 308 306 306 306 304 303 303 303 302 299 298 296 296 296 295 295 294 289 289 288 289 287 288 290 289 288 289 291 289
277 278 279 280 281 282 286 288 289 290 292 294 309 309 308 306 303 303 302 301 299 299 300 299 299 299 299 298 298 294 290 289 287 287 286 287 287 289 288 286 287 289 287
276 278 279 280 282 282 286 287 289 289 291 293 309 308 304 306 302 302 303 301 297 298 298 297 296 297 298 298 298 296 293 291 287 285 288 288 286 288 286 286 285 286 285
Wind_Speed
10 12 7 9 9 11 10 10 9 10 9 9 8 7 7 6 7 5 6 7 9 11 11 11 10 10 10 9 10 9 9 9 8 8 8 9 9 9 8 8 9 10 11
7 11 13 8 9 11 9 11 10 9 8 8 7 7 6 5 7 9 6 4 7 10 10 11 10 10 10 10 9 8 8 8 7 7 7 8 8 8 8 9 9 9 10
7 9 11 10 10 11 10 8 11 8 8 8 9 7 5 5 6 9 6 4 5 5 7 10 10 10 9 9 8 7 7 7 6 6 6 7 7 7 7 7 8 9 10
9 7 8 12 16 10 9 10 10 9 8 8 8 7 6 6 7 9 8 7 4 5 3 8 8 9 9 8 8 8 6 6 5 5 5 5 5 6 6 7 8 9 10
8 4 9 10 13 7 9 10 10 11 9 8 8 8 7 6 7 8 10 7 5 4 4 5 7 7 7 8 8 7 7 6 5 4 4 3 3 4 5 7 8 8 10
5 8 7 9 12 11 11 10 12 11 10 9 8 7 5 3 3 5 8 8 6 5 4 4 4 4 7 8 8 8 8 7 5 4 3 2 3 4 5 6 7 9 10
8 8 4 7 10 9 11 14 11 15 11 11 7 6 5 5 3 6 7 8 10 8 5 4 4 5 5 7 8 8 8 7 6 4 3 1 1 3 5 6 7 9 10
10 8 10 7 9 10 14 14 14 10 9 12 10 6 2 1 4 3 4 6 8 7 8 9 9 7 6 6 7 8 9 8 7 5 3 1 1 3 5 6 8 9 11
9 9 9 9 9 7 8 11 15 16 13 12 16 6 7 6 7 1 4 5 7 7 7 7 7 6 5 5 7 6 3 7 8 6 4 2 2 3 4 6 8 10 12
9 9 10 10 9 6 10 13 11 15 15 16 12 8 5 6 6 5 4 6 8 8 8 7 7 7 7 4 7 7 11 6 7 6 5 4 4 5 6 7 9 10 12
11 10 10 10 9 5 9 16 8 13 15 15 13 13 8 4 6 4 5 8 6 9 8 8 8 8 8 7 5 7 11 11 10 9 8 7 7 7 8 9 9 11 12
9 10 9 9 10 7 7 11 12 14 12 15 14 14 11 8 8 4 3 11 10 10 8 8 9 8 8 7 7 9 13 13 13 11 10 9 9 8 8 9 10 11 13
10 11 11 11 10 10 11 10 13 14 12 14 19 15 12 9 5 4 4 7 5 5 8 9 8 8 7 7 8 10 12 14 13 12 11 11 10 8 8 9 10 12 13
10 13 12 12 12 12 12 10 11 11 14 11 17 16 13 11 7 6 4 7 4 4 4 4 9 9 8 7 7 14 8 13 14 14 13 12 8 5 4 6 9 11 11
11 13 14 14 14 13 12 12 12 14 12 12 11 14 11 11 8 7 5 6 6 6 9 8 4 11 8 7 8 8 8 13 15 13 11 9 3 3 4 6 8 9 9
14 14 14 13 14 14 12 12 13 13 16 11 11 12 8 7 9 7 5 5 2 4 3 2 4 4 8 7 8 8 7 10 14 13 11 8 6 5 5 5 8 9 9
14 14 14 14 14 15 13 13 15 11 15 16 15 14 13 11 7 6 6 4 3 2 5 2 3 3 5 6 6 6 6 5 5 11 10 8 7 7 5 7 8 8 8
14 15 15 14 14 15 15 13 14 13 11 15 15 15 15 9 10 6 4 6 4 1 4 5 3 2 2 4 6 7 5 5 4 11 11 9 7 7 7 6 7 7 6
15 15 15 15 14 15 15 14 14 18 14 15 15 16 17 16 14 10 9 5 5 2 3 4 3 2 3 2 3 5 5 4 3 10 8 8 9 8 6 6 6 4 5
16 15 15 16 15 15 15 15 14 16 16 16 17 17 18 19 20 18 16 13 6 6 3 4 3 3 3 2 2 5 4 3 4 4 5 4 6 5 4 5 2 3 3
16 16 16 15 16 14 11 14 13 15 19 16 15 16 17 20 24 23 16 17 14 10 5 3 3 3 3 4 5 5 4 4 3 3 4 3 3 3 4 5 4 4 2
16 16 16 16 16 12 22 25 22 16 18 16 17 16 17 17 20 24 24 23 23 19 16 8 4 5 5 4 5 7 6 4 4 3 3 3 2 2 2 2 6 3 2
15 16 16 17 18 16 25 26 26 15 17 16 18 16 14 12 19 18 22 22 21 24 23 19 14 6 6 8 9 8 5 3 3 3 4 1 2 3 3 3 2 3 2
15 15 16 16 17 15 27 27 27 17 17 21 19 18 17 15 18 18 17 15 15 15 15 13 17 10 7 11 10 6 7 6 5 3 3 4 2 1 3 3 2 4 1
14 15 15 17 17 17 26 27 23 13 17 18 17 18 18 17 22 25 18 17 15 13 11 7 8 12 12 15 13 10 5 6 2 2 2 3 2 2 2 2 3 4 4
16 14 16 16 21 19 24 27 23 11 15 13 16 17 24 20 25 28 19 17 16 17 14 11 6 8 14 14 19 9 11 8 5 2 4 4 3 3 2 0 1 3 2
Wind_Direction
341 321 237 180 177 180 181 171 174 198 185 180 180 175 176 177 147 115 135 143 147 147 142 137 135 133 124 119 118 113 109 107 104 100 88 82 75 68 60 53 44 38 34
341 344 339 186 190 182 186 169 174 193 173 179 182 180 180 173 150 120 127 138 148 139 152 144 147 144 136 132 126 124 119 108 98 86 78 74 67 58 48 40 35 34 31
322 354 327 326 245 182 170 157 172 169 176 172 175 182 179 176 153 145 138 138 130 123 148 157 156 151 144 142 133 129 119 108 101 91 73 60 57 53 47 37 32 30 25
329 8 315 327 318 179 167 164 174 166 176 178 172 172 173 184 156 152 167 170 160 159 155 146 165 161 157 153 148 139 130 125 113 97 79 66 51 39 33 32 28 26 21
311 355 339 312 320 214 172 171 172 172 173 176 175 166 176 173 174 161 163 176 160 165 158 144 166 170 162 170 162 157 155 152 143 131 113 83 55 36 27 21 21 20 16
327 314 288 326 317 329 174 180 172 176 173 167 162 160 158 152 167 180 160 166 175 161 124 142 127 167 181 188 186 175 173 171 166 157 134 96 55 23 18 17 11 8 8
309 278 330 306 305 305 279 171 175 170 173 161 132 66 26 355 193 209 177 175 174 190 169 159 184 199 170 201 203 193 189 185 179 173 164 147 41 19 12 6 1 360 358
331 321 321 303 327 315 325 187 177 171 169 153 152 122 140 283 293 247 204 194 186 185 183 194 194 204 175 184 192 199 202 197 192 185 179 215 308 356 1 357 350 350 353
312 302 289 298 294 302 304 260 177 178 158 170 163 156 157 207 148 257 282 223 196 191 193 202 199 201 199 189 152 157 174 218 202 194 199 225 300 329 345 338 342 345 348
307 292 291 295 278 299 293 301 221 173 168 171 171 220 193 146 179 159 214 226 223 211 199 195 200 202 203 206 172 182 172 170 198 208 218 236 271 296 306 320 334 337 344
302 303 303 300 284 274 283 295 216 209 180 175 191 187 192 148 202 153 170 183 215 221 207 208 194 201 203 199 188 166 173 190 207 219 237 250 261 279 295 307 321 330 338
304 308 316 314 312 284 263 302 228 220 212 188 194 188 177 170 193 166 146 175 189 206 213 209 204 200 196 201 199 177 177 199 213 225 240 253 260 273 289 302 314 327 333
310 309 322 312 309 303 307 295 254 209 217 226 191 189 190 192 158 170 140 154 169 166 200 214 209 200 200 194 199 177 179 200 211 225 239 246 257 270 291 309 320 326 331
303 310 303 299 296 306 302 290 277 224 212 209 225 194 185 185 164 166 148 144 137 157 179 186 200 202 199 193 192 177 183 201 210 219 231 244 258 313 332 324 318 317 329
299 298 300 299 296 296 290 285 280 230 213 203 219 220 201 183 169 162 147 171 146 173 204 203 171 199 194 187 180 174 195 191 203 211 222 243 282 312 312 307 307 306 314
298 299 302 299 297 294 293 286 280 234 214 203 204 199 196 199 177 155 154 177 189 153 144 114 184 169 187 184 168 174 187 175 193 205 209 214 226 245 261 282 286 291 307
300 300 300 300 298 293 287 286 292 231 225 205 198 194 188 183 186 167 140 145 162 161 120 73 62 110 181 166 161 183 180 175 171 207 206 201 212 228 237 259 275 290 303
302 299 297 293 291 286 284 286 279 250 219 222 204 194 187 168 172 158 130 143 152 187 120 133 128 121 190 186 168 169 195 179 181 186 199 204 209 226 239 259 273 282 317
302 300 296 292 292 289 289 280 277 287 208 212 208 200 188 174 179 171 160 162 139 146 95 126 133 162 107 154 185 155 174 161 168 142 176 192 214 231 240 257 273 317 24
303 300 297 297 292 286 279 278 287 284 234 211 211 207 198 193 187 182 181 186 164 124 113 117 117 147 131 165 126 151 162 167 165 154 185 169 189 219 244 265 273 67 20
301 298 294 290 290 287 282 283 277 268 270 206 212 211 207 201 199 192 189 190 183 169 151 165 150 158 168 142 188 166 142 150 186 148 169 152 170 182 192 205 123 99 27
300 299 299 295 291 284 287 282 281 288 299 208 210 211 209 200 203 196 194 190 189 181 187 174 170 192 182 153 151 152 133 154 191 179 133 124 106 150 151 109 101 102 127
301 298 296 294 292 287 288 289 289 284 272 249 203 207 204 200 194 196 190 186 187 190 191 190 189 195 162 168 142 161 167 156 153 140 97 135 165 167 129 105 128 134 101
299 296 294 290 290 289 289 289 281 270 272 278 196 198 198 193 192 184 180 183 186 188 191 191 192 190 155 163 161 161 143 107 78 53 91 142 159 110 137 115 150 153 80
296 293 290 289 290 288 288 289 288 278 273 280 201 192 196 194 190 183 176 177 178 190 193 192 160 161 144 153 145 123 133 138 99 158 191 119 143 107 122 144 152 167 252
292 292 291 289 286 288 288 288 285 270 272 275 208 188 194 194 187 180 180 175 176 189 180 184 160 151 145 159 160 166 160 154 127 80 206 115 128 137 67 269 167 198 259